SCP
0 0 0 0 0 0 0 0 0 0 0 0 0 0 0 0 0 0 0 0 0 0 0 0 0 0 0 0 0 0 0 0 0 0 0 0 0 0 0 0 0 0 0
0 0 0 0 0 0 0 0 0 0 0 0 0 0 0 0 0 0 0 0 0 0 0 0 0 0 0 0 0 0 0 0 0 0 0 0 0 0 0 0 0 0 0
0 0 0 0 0 0 0 0 0 0 0 0 0 0 0 0 0 0 0 0 0 0 0 0 0 0 0 0 0 0 0 0 0 0 0 0 0 0 0 0 0 0 0
0 0 0 0 0 0 0 0 0 0 0 0 0 0 0 0 0 0 0 0 0 0 0 0 0 0 0 0 0 0 0 0 0 0 0 0 0 0 0 0 0 0 0
0 0 0 0 0 0 0 0 0 0 0 0 0 0 0 0 0 0 0 0 0 0 0 0 0 0 0 0 0 0 0 0 0 0 0 0 0 0 0 0 0 0 0
0 0 0 0 0 0 0 0 0 0 0 0 0 0 0 0 0 0 0 0 0 0 0 0 0 0 0 0 0 0 0 0 0 0 0 0 0 0 0 0 0 0 0
0 0 0 0 0 0 0 0 0 0 0 0 0 0 0 0 0 0 0 0 0 0 0 0 0 0 0 0 0 0 0 0 0 0 0 0 0 0 0 0 0 0 0
0 0 0 0 0 0 0 0 0 0 0 0 0 0 0 0 0 0 0 0 0 0 0 0 0 0 0 0 0 0 0 0 0 0 0 0 0 0 0 0 0 0 0
0 0 0 0 0 0 0 0 0 0 0 0 0 0 0 0 0 0 0 0 0 0 0 0 0 0 0 0 0 0 0 0 0 0 0 0 0 0 0 0 0 0 0
0 0 0 0 0 0 0 0 0 0 0 0 0 0 0 0 0 0 0 0 0 0 0 0 0 0 0 0 0 0 0 0 0 0 0 0 0 0 0 0 0 0 0
0 0 0 0 0 0 0 0 0 0 0 0 0 0 0 0 0 0 0 0 0 0 0 0 0 0 0 0 0 0 0 0 0 0 0 0 0 0 0 0 0 0 0
0 0 0 0 0 0 0 0 0 0 0 0 0 0 0 0 0 0 0 0 0 0 0 0 0 0 0 0 0 0 0 0 0 0 0 0 0 0 0 0 0 0 0
0 0 0 0 0 0 0 0 0 0 0 0 0 0 0 0 0 0 0 0 0 0 0 0 0 0 0 0 0 0 0 0 0 0 0 0 0 0 0 0 0 0 0
0 0 0 0 0 0 0 0 0 0 0 0 0 0 0 0 0 0 0 0 0 0 0 0 0 0 0 0 0 0 0 0 0 0 0 0 0 0 0 0 0 0 0
0 0 0 0 0 0 0 0 0 0 0 0 0 0 0 0 0 0 0 0 0 0 0 0 0 0 0 0 0 0 0 0 0 0 0 0 0 0 0 0 0 0 0
0 0 0 0 0 0 0 0 0 0 0 0 0 0 0 0 0 0 0 0 0 0 0 0 0 0 0 0 0 0 0 0 0 0 0 0 0 0 0 0 0 0 0
0 0 0 0 0 0 0 0 0 0 0 0 0 0 0 0 0 0 0 0 0 0 0 0 0 0 0 0 0 0 0 0 0 0 0 0 0 0 0 0 0 0 0
0 0 0 0 0 0 0 0 0 0 0 0 0 0 0 0 0 0 0 0 0 0 0 0 0 0 0 0 0 0 0 0 0 0 0 0 0 0 0 0 0 0 0
0 0 0 0 0 0 0 0 0 0 0 0 0 0 0 0 0 0 0 0 0 0 0 0 0 0 0 0 0 0 0 0 0 0 0 0 0 0 0 0 0 0 0
0 0 0 0 0 0 0 0 0 0 0 0 0 0 0 0 0 0 0 0 0 0 0 0 0 0 0 0 0 0 0 0 0 0 0 0 0 0 0 0 0 0 0
0 0 0 0 0 0 0 0 0 0 0 0 0 0 0 0 0 0 0 0 0 0 0 0 0 0 0 0 0 0 0 0 0 0 0 0 0 0 0 0 0 0 0
0 0 0 0 0 0 0 0 0 0 0 0 0 0 0 0 0 0 0 0 0 0 0 0 0 0 0 0 0 0 0 0 0 0 0 0 0 0 0 0 0 0 0
0 0 0 0 0 0 0 0 0 0 0 0 0 0 0 0 0 0 0 0 0 0 0 0 0 0 0 0 0 0 0 0 0 0 0 0 0 0 0 0 0 0 0
0 0 0 0 0 0 0 0 0 0 0 0 0 0 0 0 0 0 0 0 0 0 0 0 0 0 0 0 0 0 0 0 0 0 0 0 0 0 0 0 0 0 0
0 0 0 0 0 0 0 0 0 0 0 0 0 0 0 0 0 0 0 0 0 0 0 0 0 0 0 0 0 0 0 0 0 0 0 0 0 0 0 0 0 0 0
0 0 0 0 0 0 0 0 0 0 0 0 0 0 0 0 0 0 0 0 0 0 0 0 0 0 0 0 0 0 0 0 0 0 0 0 0 0 0 0 0 0 0
Wind_Speed
8 8 8 8 8 8 7 7 7 6 6 5 5 4 4 3 2 2 1 2 2 2 2 2 3 4 3 3 3 3 3 4 10 12 8 7 9 11 12 11 11 11 11
8 8 8 8 8 8 7 7 7 6 6 5 5 4 3 3 2 1 1 1 2 2 3 3 4 4 4 4 3 4 4 4 7 15 14 9 9 10 11 13 13 12 10
9 9 9 8 8 8 8 7 7 7 6 5 5 4 4 3 2 1 1 2 2 3 3 4 4 4 5 4 4 4 4 6 5 10 15 11 9 8 11 12 12 10 12
10 10 9 9 9 8 8 8 7 7 7 6 5 4 4 3 3 2 2 3 3 4 4 4 5 5 5 5 5 5 6 7 7 9 12 12 10 9 9 10 12 8 10
12 11 10 9 9 8 8 8 7 7 6 6 5 5 4 4 4 4 3 4 4 5 5 5 5 5 8 8 7 6 6 6 8 9 11 12 12 11 11 11 13 12 9
13 12 10 10 10 10 9 8 8 7 6 6 6 6 5 5 8 9 6 4 5 6 7 6 6 6 8 13 15 15 14 10 9 10 11 13 15 14 13 12 14 15 14
12 11 11 11 11 10 10 9 9 8 7 7 7 6 7 8 11 11 10 6 6 6 7 7 6 5 6 7 12 15 14 17 19 15 15 16 17 15 17 17 16 16 16
12 11 11 11 11 10 10 10 9 7 7 8 8 7 6 8 13 12 11 7 6 8 7 7 8 7 7 9 9 10 11 12 15 13 14 16 16 16 17 18 18 17 15
13 12 12 12 12 11 12 11 9 8 8 8 6 7 7 8 12 13 11 4 6 8 7 7 7 7 12 15 11 10 12 12 16 21 23 24 28 28 23 14 11 12 13
14 13 11 11 12 13 13 10 7 7 8 7 7 7 8 7 11 14 13 5 6 6 6 7 8 9 14 15 9 8 11 12 12 12 16 18 17 18 22 14 11 11 12
10 10 10 11 11 11 9 7 7 7 6 7 6 6 6 7 11 15 15 7 6 5 5 5 6 13 15 15 14 7 12 14 8 9 10 11 11 10 11 11 11 11 12
9 10 10 10 9 8 9 7 7 8 7 7 6 6 6 7 10 13 16 15 12 7 6 6 7 14 15 16 12 13 17 13 5 6 8 9 9 9 10 12 13 13 13
9 9 8 8 7 8 9 9 7 7 7 7 7 7 6 6 8 14 15 15 16 9 7 12 14 16 14 9 11 15 10 4 5 6 8 9 9 10 11 11 12 12 13
9 9 8 9 8 7 7 8 8 9 8 8 8 7 5 5 5 5 5 6 10 9 7 8 13 14 11 9 7 7 4 5 5 7 8 9 9 9 9 9 10 10 11
8 8 8 7 8 8 7 7 9 8 9 8 7 6 6 6 8 12 7 6 6 7 6 3 3 3 3 3 4 4 4 4 5 6 7 8 9 9 10 9 8 9 10
8 8 7 6 6 6 6 5 12 11 14 15 13 9 7 9 11 13 15 16 16 15 8 4 5 5 5 5 4 4 4 5 5 5 6 7 8 9 10 9 9 9 10
8 8 6 6 7 7 6 6 5 7 13 14 14 14 13 13 14 15 15 16 16 15 8 5 5 5 5 4 4 4 5 5 5 5 6 7 8 9 9 10 10 10 10
5 6 6 6 6 6 6 5 5 5 4 3 7 11 12 13 14 14 15 13 8 7 4 5 5 5 5 5 5 5 5 5 5 5 6 6 6 8 9 10 10 11 11
4 4 4 4 4 4 4 4 3 4 3 2 1 3 6 9 11 13 12 6 5 5 5 5 5 5 5 5 5 4 5 5 5 5 6 6 6 7 8 9 10 13 12
3 5 4 4 4 4 4 4 3 3 3 3 3 3 2 2 3 4 4 4 5 5 5 5 5 5 5 5 5 4 4 5 5 5 6 6 6 6 8 10 10 10 10
3 4 5 4 4 4 4 3 3 3 3 3 3 5 8 4 5 5 5 5 6 6 5 5 5 5 5 5 5 5 6 6 5 5 5 6 6 6 7 8 10 10 10
4 4 3 3 3 3 3 3 3 3 3 3 3 4 10 4 3 4 5 5 5 5 5 5 5 5 5 5 5 5 6 6 6 5 5 6 6 6 7 8 9 9 9
4 4 4 3 3 3 3 2 3 3 3 4 4 4 4 4 5 5 6 6 5 5 4 5 6 6 5 5 5 6 7 8 6 5 5 6 6 6 7 8 10 10 9
3 4 4 3 3 3 3 3 3 4 4 4 4 5 5 5 5 6 6 6 5 5 5 5 7 9 10 7 5 6 7 7 7 6 7 7 7 7 7 8 8 9 9
2 2 2 3 3 3 3 3 4 4 4 5 5 5 5 5 6 6 6 6 6 7 7 7 6 8 10 11 10 8 10 13 11 7 6 7 8 9 9 9 8 7 7
2 2 2 2 2 3 3 4 4 4 4 5 5 5 5 6 6 6 6 6 6 6 7 6 8 10 10 9 11 12 13 15 14 13 8 7 9 9 8 7 8 6 7
Wind_Direction
146 140 137 136 133 129 129 133 132 129 131 130 127 120 114 104 86 74 58 36 9 343 339 336 317 311 307 308 305 297 289 286 287 293 296 310 316 315 313 308 306 303 305
150 144 143 141 138 138 140 141 139 139 140 139 137 136 138 131 115 100 32 353 319 307 305 303 298 305 304 298 295 293 289 281 283 294 302 311 310 309 307 308 309 309 307
153 153 151 152 151 153 152 150 149 149 148 148 151 157 159 156 160 180 220 273 278 279 281 282 285 292 291 291 295 291 287 291 285 291 298 306 306 307 307 303 301 301 306
161 163 165 166 164 161 156 156 157 157 159 163 168 168 170 177 195 210 228 255 266 270 271 271 272 273 281 290 292 286 290 294 294 292 295 302 305 305 302 308 307 302 302
169 173 175 169 162 158 159 161 161 163 166 166 169 176 182 193 207 209 229 252 263 270 270 267 267 266 276 284 285 283 287 287 291 294 295 300 303 309 308 307 303 303 295
175 179 173 167 165 166 165 163 165 169 169 170 182 188 199 210 220 225 232 248 261 267 271 270 270 267 274 288 293 295 292 291 292 290 291 293 297 301 301 299 299 300 300
177 176 173 169 170 171 167 167 176 179 176 184 193 198 209 221 228 232 241 248 256 262 267 271 274 274 277 284 289 293 295 292 291 289 289 290 294 296 296 294 290 289 291
178 179 175 171 173 170 170 180 184 180 186 192 200 202 208 223 231 235 243 247 254 257 257 261 269 276 277 284 282 286 289 290 289 288 284 287 290 292 289 290 291 292 290
183 184 179 174 173 174 183 189 186 183 191 196 196 199 209 225 233 237 242 239 252 259 259 259 263 267 278 288 293 292 295 295 298 299 299 300 301 303 303 301 299 297 297
190 185 177 176 179 185 191 187 180 184 191 192 203 202 209 218 232 239 240 231 246 257 259 261 261 265 276 286 289 290 296 301 307 310 309 307 305 303 304 300 299 296 297
176 168 172 180 186 186 181 175 170 177 179 192 205 209 213 219 235 240 239 228 232 248 256 259 262 275 281 289 297 294 295 307 319 317 310 306 306 305 305 306 306 304 301
159 167 175 178 178 173 170 170 168 171 180 195 207 223 226 224 226 238 241 241 239 234 247 260 266 277 283 293 301 300 307 319 319 307 304 304 306 307 308 309 306 302 294
161 170 171 167 168 167 171 171 169 176 189 201 206 222 225 215 225 234 240 245 249 247 247 258 268 277 287 296 298 302 312 311 296 296 298 300 303 304 306 306 305 301 294
168 171 166 168 171 169 174 176 180 189 198 204 208 216 216 208 205 216 229 246 255 260 267 267 274 279 283 286 291 296 290 280 282 286 292 298 303 304 303 305 308 312 308
169 169 171 176 177 181 191 197 195 201 197 200 206 200 199 215 220 220 214 216 221 236 243 230 228 243 250 257 262 264 270 277 281 284 292 300 303 305 306 308 306 307 305
171 176 178 178 180 181 186 210 227 217 223 227 220 211 217 229 238 240 244 248 252 252 246 226 228 230 238 246 255 266 269 273 279 289 292 294 300 305 307 308 306 306 307
180 179 177 178 180 182 183 189 206 226 228 233 236 238 237 240 246 250 254 258 258 256 248 231 227 230 235 240 246 254 266 272 281 286 288 292 298 301 303 305 308 310 308
175 174 173 176 176 179 184 186 185 187 200 231 244 250 254 257 259 260 260 262 258 252 229 225 228 230 232 238 244 252 264 275 278 281 284 288 292 296 300 304 307 308 309
165 163 160 155 156 160 162 164 170 181 192 201 214 263 265 273 276 272 268 254 244 238 231 229 228 229 233 236 241 247 254 264 270 276 280 283 287 293 298 302 304 305 307
141 142 139 138 139 143 150 160 172 184 197 206 216 223 217 219 247 265 258 252 248 245 236 233 231 230 232 235 239 244 253 259 265 268 274 280 285 289 296 301 302 305 308
119 125 128 129 141 150 158 171 182 191 205 217 224 236 240 223 228 234 237 238 240 243 240 237 235 233 232 232 234 240 247 256 258 262 270 277 283 289 293 295 297 302 306
114 123 131 135 138 148 157 168 180 198 214 229 239 262 271 267 250 249 248 248 242 237 233 233 239 236 231 228 228 234 243 252 255 256 265 274 281 286 290 292 297 305 309
116 126 130 132 138 148 158 179 195 208 222 231 238 241 250 251 251 252 254 255 255 251 239 232 241 248 242 233 226 225 237 246 246 244 258 272 278 280 284 289 294 302 308
120 134 143 151 159 172 187 201 211 219 227 234 239 241 244 246 248 251 253 255 254 253 245 238 241 247 248 245 239 234 239 247 247 244 244 254 266 273 276 280 287 294 301
127 138 151 166 180 194 206 216 223 229 233 238 241 244 247 248 251 253 253 253 254 254 251 245 245 247 250 249 246 245 250 257 256 244 238 245 255 260 265 272 279 289 296
155 168 183 195 205 213 220 228 235 239 241 244 245 246 249 251 254 256 256 256 257 257 257 251 248 248 251 252 253 254 254 255 252 244 233 238 246 254 257 263 271 277 288